Regional Weather Roundup
Issued by NWS

Home | Current Version | Previous Version | Text Only | Print | Product List | Glossary Off
Versions: 1 2 3 4 5 6 7 8 9 10 11 12 13 14 15 16 17 18 19 20 21 22 23 24 25 26 27

000
ASUS45 KCYS 180310
RWRWY

WYOMING REGIONAL WEATHER ROUNDUP
NATIONAL WEATHER SERVICE CHEYENNE WY
800 PM MST SUN DEC 17 2017

NOTE:  "FAIR" INDICATES FEW OR NO CLOUDS BELOW 12,000 FEET
WITH NO SIGNIFICANT WEATHER AND/OR OBSTRUCTIONS TO VISIBILITY.

WYZ001-180400-
YELLOWSTONE NATIONAL PARK

CITY           SKY/WX    TMP DP  RH WIND       PRES   REMARKS
LK YELLOWSTONE   N/A     13  12  96 CALM      30.11R
W YELLOWSTONE  NOT AVBL

$$
WYZ002>013-054>058-071-098>099-180400-
NORTHERN WYOMING

CITY           SKY/WX    TMP DP  RH WIND       PRES   REMARKS
JACKSON        CLOUDY    20  17  88 N3        30.14S
CODY           FAIR      33  17  51 NW8       29.90R WCI  26
GREYBULL       FAIR      19  17  92 SE7       29.97R WCI  10
WORLAND        FAIR      15  13  91 SE3       29.96R
SHERIDAN       FAIR      17  15  92 CALM      29.86R
BUFFALO        FAIR      28  14  55 SW5       29.85S WCI  23
GILLETTE       FAIR      26  17  68 SW12      29.87R WCI  16
HULETT         FAIR      30  21  69 SW14      29.86R WCI  20
NEWCASTLE      FAIR      19  18  93 CALM      29.89S

$$
WYZ014>020-022>026-101>103-180400-
CENTRAL WYOMING

CITY           SKY/WX    TMP DP  RH WIND       PRES   REMARKS
BIG PINEY      FAIR      18  12  77 N9        30.07R WCI   7
PINEDALE       FAIR      19  12  73 NW9       30.06R WCI   9
DUBOIS         FAIR      27  18  69 W26G40    29.97R WCI  11
LANDER         FAIR      24  15  68 CALM      29.92S
RIVERTON       FAIR      20  16  84 VRB3      29.93S
CASPER         FAIR      28  16  60 SW21      29.91F WCI  15
DOUGLAS        FAIR      26  16  65 CALM      29.89F

$$
WYZ021-027>030-104>119-180400-
SOUTHERN WYOMING

CITY           SKY/WX    TMP DP  RH WIND       PRES   REMARKS
EVANSTON       FAIR      18  15  88 W12       30.14R WCI   5
FORT BRIDGER   CLEAR     23  16  74 W17       30.14R WCI   9
ROCK SPRINGS   FAIR      22  13  68 W18       30.07R WCI   7
DIXON          MOCLDY    26  19  74 E6        30.13R WCI  19
RAWLINS        FAIR      24  13  62 VRB5      30.04R WCI  18
SARATOGA       FAIR      19  12  73 SE6       30.04S WCI  11
LARAMIE        FAIR      26  12  55 SW24      29.92F WCI  11
CHEYENNE       FAIR      27  17  66 SW7       29.92R WCI  19
TORRINGTON     FAIR      29  12  49 CALM      29.91R
PINE BLUFFS    FAIR      19  19 100 S5        29.94S WCI  13

$$




USA.gov is the U.S. government's official web portal to all federal, state and local government web resources and services.